Simultaneous Nadir Overpasses (SNOs) Predictions

Prediction of SNOs between GOES-16 and METOP-B Satellite Orbit:

Table of predicted SNOs for the next 14.0 days since TLE Epoch: 9/5/2025
Index Date Time (GOES-16) GOES-16 Lat,Lon METOP-B Lat,Lon Distance(km) Time Diff (sec)
1 09/06/2025 03:47:02 -0.03,-104.64 0.60,-101.83 320.77 80
2 09/07/2025 16:08:37 0.04,-104.69 0.40,-106.42 196.87 80
3 09/08/2025 15:45:18 0.03,-104.69 -0.67,-101.44 370.18 80
4 09/10/2025 04:07:01 -0.05,-104.64 -0.36,-106.06 162.09 80
5 09/11/2025 03:43:44 -0.04,-104.64 0.77,-101.09 404.76 80
6 09/12/2025 16:05:17 0.05,-104.68 0.27,-105.67 113.17 80
7 09/13/2025 15:42:00 0.05,-104.67 -0.86,-100.70 453.58 80
8 09/15/2025 04:03:42 -0.07,-104.62 -0.21,-105.32 79.02 80
9 09/16/2025 03:40:24 -0.06,-104.61 0.87,-100.33 487.60 80
10 09/17/2025 16:01:58 0.07,-104.65 0.11,-104.93 30.53 80
